RH
16 16 15 15 15 16 17 17 17 18 20 31 52 87 82 89 92 89 85 84 82 82 84 82 83 72 72 72 70 67 62 47 33 24 20 19 20 19 20 21 18 16 13
21 26 25 23 21 20 21 25 27 27 25 25 31 43 67 75 85 89 91 88 83 84 82 81 83 74 74 76 70 66 66 56 42 27 22 17 17 16 14 17 15 13 11
23 24 25 28 28 23 23 22 23 26 29 30 27 34 50 61 72 76 82 91 91 84 82 81 80 79 77 81 82 70 72 63 51 35 23 20 17 15 14 13 14 13 10
31 31 34 33 30 33 34 32 30 29 30 31 33 30 31 42 57 71 75 78 81 87 78 77 75 72 75 79 78 80 73 73 56 47 30 24 19 16 14 12 12 14 13
41 42 43 42 40 41 41 41 40 40 40 36 34 35 36 33 37 53 52 65 66 70 62 67 64 65 66 72 69 67 79 80 75 53 44 36 23 18 14 13 13 15 16
43 44 46 47 47 48 47 48 48 48 47 46 43 37 31 27 27 31 32 41 49 58 53 52 53 51 57 63 69 71 71 86 85 75 53 45 35 23 16 13 16 17 17
48 49 52 53 54 55 56 55 54 56 54 53 50 47 42 36 33 30 28 30 38 54 60 55 49 47 49 57 57 63 69 73 91 91 71 57 48 30 19 15 17 23 20
52 57 58 59 63 64 64 64 65 63 61 59 56 53 49 46 41 41 41 42 45 56 68 67 66 53 45 47 54 58 64 70 77 93 92 75 61 37 25 17 20 24 24
62 66 69 72 72 71 72 72 70 68 67 67 65 61 56 52 51 45 43 42 45 48 52 61 76 70 57 55 50 56 69 65 71 78 89 94 75 52 35 26 24 25 25
70 73 76 77 80 78 80 82 80 77 74 69 66 68 65 60 58 53 50 45 41 39 39 45 56 61 65 59 52 49 57 67 69 75 80 88 91 72 53 38 27 27 25
75 75 79 85 88 88 83 82 74 69 71 72 70 68 66 64 63 60 53 52 48 42 38 32 34 43 52 70 57 52 56 58 63 68 83 87 92 95 69 54 37 29 26
76 81 83 86 83 80 81 72 70 69 68 68 68 64 61 61 61 59 55 51 51 47 42 38 34 33 35 48 60 60 58 59 67 62 74 85 82 84 91 69 51 36 29
78 79 79 84 83 82 74 73 73 70 67 64 61 57 53 50 50 51 49 45 43 41 39 38 35 33 31 33 43 57 57 60 66 64 67 80 91 86 89 84 69 48 38
81 83 87 86 81 82 85 79 74 69 65 60 55 51 49 49 48 46 46 49 48 41 40 40 42 37 33 31 28 32 54 60 66 63 69 71 84 98 92 89 83 62 45
85 89 92 88 92 83 79 75 70 64 60 55 52 49 45 44 46 48 44 44 46 46 43 45 43 38 36 36 38 33 30 37 54 67 69 76 73 89 99 94 88 78 54
95 95 94 92 85 80 77 73 68 60 54 49 45 42 40 39 38 38 40 41 44 50 51 39 39 43 39 32 33 41 38 31 29 44 64 71 78 80 92 98 95 86 62
96 97 94 84 82 80 74 67 59 54 48 41 38 36 34 32 31 30 29 30 36 40 47 35 39 40 41 37 29 33 39 41 32 33 47 62 69 83 83 95 98 93 82
96 91 86 86 82 76 67 58 49 44 41 38 35 32 30 29 30 30 29 26 28 30 41 36 40 44 48 47 37 30 34 40 42 35 38 65 66 75 82 90 98 97 92
91 88 88 85 77 65 53 42 39 34 31 31 31 32 32 32 32 31 30 32 35 38 42 47 38 45 47 52 49 36 32 39 42 42 36 47 60 74 75 91 97 98 99
90 89 88 77 62 46 34 30 32 35 36 37 37 37 37 38 41 44 45 42 43 43 44 51 48 46 52 49 51 43 36 33 35 43 40 35 36 47 70 86 97 97 99
91 85 67 50 32 29 29 35 39 37 36 37 38 40 44 53 61 64 65 60 62 60 58 56 54 50 54 54 49 42 45 41 38 32 37 39 32 49 60 69 93 98 98
72 51 33 29 27 29 35 37 40 41 44 45 50 61 71 79 82 84 84 82 80 77 75 77 70 62 63 71 67 61 57 50 51 51 52 52 44 43 52 68 82 97 98
41 29 27 27 31 35 38 41 47 50 55 66 74 81 85 88 90 89 89 90 89 86 86 89 82 77 73 71 80 88 78 68 64 66 66 56 50 44 51 52 77 91 95
29 26 28 35 36 36 41 48 57 70 77 81 84 86 87 87 89 90 89 86 85 88 88 89 88 87 82 84 85 92 95 83 68 70 75 68 58 45 50 52 72 88 90
27 31 36 37 37 45 54 71 79 81 85 88 89 91 94 93 94 96 96 94 94 93 96 93 91 91 90 90 91 94 90 96 77 77 89 82 67 45 56 48 75 87 94
33 35 37 41 50 58 75 81 84 86 88 90 91 92 95 96 97 98 96 94 90 92 96 95 94 94 95 95 96 96 95 91 91 69 84 91 72 54 59 59 78 91 96